Home > Weather > Naha > Past weeks

Flag for Japan Past Weather in Naha, Okinawa, Japan — Yesterday and Last 2 Weeks

Now
86 °F

Passing clouds.


Feels Like: 97 °F
Forecast: 83 / 90 °F
Wind: 9 mph from Southeast

Location: Naha Airport

Current Time: Jul 1, 2016 at 10:35:41 PM

Latest Report: Jul 1, 2016 at 10:00 PM


Visibility: N/A

Pressure: 29.92 "Hg

Humidity: 75%

Dew Point: 77 °F

Location of NahaLocation

Past Weather in Naha — Graph

°F

Naha Temperature Yesterday

Maximum temperature yesterday: 90 °F (at 11:00 AM)
Minimum temperature yesterday: 82 °F (at 1:30 AM)
Average temperature yesterday: 86 °F

High & Low Weather Summary for the Past Weeks

 TemperatureHumidityPressure
High91 °F (Jul 1, 12:00 PM)94% (Jun 16, 9:00 PM)30.01 "Hg (Jun 16, 9:00 PM)
Low79 °F (Jun 25, 10:30 PM)59% (Jul 1, 2:00 PM)29.77 "Hg (Jun 16, 9:00 PM)
Average85 °F80%29.88 "Hg
* Reported Jun 16 9:00 PM — Jul 1 9:30 PM, Naha, Weather by CustomWeather, © 2016

Note: Actual official high and low records may vary slightly from our data, if they occured in-between our weather recording intervals... More about our weather records

Advertising

Naha Weather History for the Previous 24 Hours

Scroll right to see more
 ConditionsComfort  
Time TempWeatherWind HumidityBarometerVisibility
9:30 PM
Fri, Jul 1
86 °FPassing clouds.12 mph75%29.92 "HgN/A
9:00 PM86 °FPassing clouds.10 mph75%29.89 "HgN/A
8:30 PM86 °FPassing clouds.13 mph70%29.89 "HgN/A
8:00 PM86 °FPassing clouds.9 mph75%29.89 "HgN/A
7:30 PM86 °FPassing clouds.14 mph75%29.89 "HgN/A
7:00 PM88 °FScattered clouds.14 mph70%29.86 "HgN/A
6:30 PM88 °FPassing clouds.12 mph70%29.86 "HgN/A
6:00 PM88 °FScattered clouds.16 mph70%29.86 "HgN/A
5:30 PM88 °FScattered clouds.14 mph66%29.86 "HgN/A
5:00 PM90 °FScattered clouds.15 mph63%29.86 "HgN/A
4:30 PM91 °FScattered clouds.14 mph63%29.86 "HgN/A
4:00 PM91 °FScattered clouds.14 mph59%29.86 "HgN/A
3:30 PM90 °FScattered clouds.13 mph67%29.86 "HgN/A
3:00 PM91 °FScattered clouds.15 mph63%29.86 "HgN/A
2:30 PM90 °FScattered clouds.12 mph67%29.86 "HgN/A
2:00 PM91 °FScattered clouds.14 mph59%29.89 "HgN/A
1:30 PM90 °FScattered clouds.14 mph67%29.89 "HgN/A
1:00 PM91 °FScattered clouds.13 mph63%29.89 "HgN/A
12:30 PM91 °FScattered clouds.13 mph63%29.89 "HgN/A
12:00 PM91 °FScattered clouds.14 mph63%29.89 "HgN/A
11:30 AM90 °FScattered clouds.14 mph67%29.92 "HgN/A
11:00 AM90 °FScattered clouds.13 mph67%29.92 "HgN/A
10:30 AM90 °FScattered clouds.12 mph67%29.92 "HgN/A
10:00 AM90 °FScattered clouds.12 mph67%29.92 "HgN/A
9:30 AM88 °FBroken clouds.14 mph70%29.92 "HgN/A
9:00 AM88 °FBroken clouds.12 mph70%29.89 "HgN/A
8:30 AM88 °FPartly sunny.10 mph70%29.89 "HgN/A
8:00 AM86 °FPartly sunny.10 mph75%29.92 "HgN/A
7:30 AM86 °FPartly sunny.8 mph75%29.89 "HgN/A
7:00 AM84 °FPartly sunny.6 mph79%29.89 "HgN/A
6:30 AM84 °FPartly sunny.5 mph74%29.89 "HgN/A
6:00 AM84 °FPartly sunny.3 mph79%29.89 "HgN/A
5:30 AM84 °FSprinkles. Partly cloudy.3 mph74%29.89 "HgN/A
5:00 AM84 °FScattered showers. Passing clouds.3 mph74%29.89 "HgN/A
4:30 AM82 °FPassing clouds.5 mph79%29.89 "HgN/A
4:00 AM84 °FPassing clouds.5 mph74%29.89 "HgN/A
3:30 AM82 °FPassing clouds.3 mph79%29.89 "HgN/A
3:00 AM82 °FPassing clouds.5 mph79%29.89 "HgN/A
2:30 AM82 °FPassing clouds.6 mph79%29.89 "HgN/A
2:00 AM82 °FPassing clouds.6 mph79%29.92 "HgN/A
1:30 AM84 °FPassing clouds.6 mph74%29.92 "HgN/A
1:00 AM84 °FPassing clouds.7 mph74%29.92 "HgN/A
12:30 AM84 °FPassing clouds.6 mph74%29.92 "HgN/A
12:00 AM84 °FPassing clouds.6 mph74%29.95 "HgN/A
11:30 PM
Thu, Jun 30
84 °FPassing clouds.6 mph74%29.95 "HgN/A
11:00 PM84 °FPassing clouds.6 mph79%29.95 "HgN/A
10:30 PM84 °FPassing clouds.6 mph79%29.95 "HgN/A
10:00 PM84 °FPassing clouds.6 mph79%29.95 "HgN/A
Weather by CustomWeather, © 2016

See weather overviewHow to use our weather pages